TIANLIAN 1-02

Last updated on Sept. 28, 2020, 5:45 a.m. UTC

1 37737U 11032A   20271.66435297 -.00000037  00000-0  00000-0 0  9999
2 37737   2.7502  74.3113 0017391 103.1552 239.6665  1.00269127 33777
UTC
Height (km)
Latitude
Longitude
Inclination
Orbital Period
UTC large
Height (km)
Speed (km/s)
/
Latitude / Longitude
Inclination (degrees)
Orbital Period (minutes)
Azimuth
Elevation
Range (km)
Doppler Factor
iOS Compass Heading
iOS Angle

Next 30 passes for location: Hong Kong

Rise time Rise Azimuth (degrees) Set time Set Azimuth (degrees) Duration Max altitude (degrees)

No matching passes for this satellites